Find Starlink 11430

NORAD ID: 62916 Int'l Des: 2025-027 Owner: SPXS Country: US Constellation: starlink operational
LEOCIRCULAR

Live-Position

3D-Globus wird geladen...

Über Starlink 11430

Beschreibung wird geladen...

Nächste Überflüge

Passes for default location (London). Set your location on the main map for personalized predictions.

Höhenverlauf

Loading altitude history...

Zweizeiliger Elementsatz

1 62916U 25027K 26125.06318343 .00321374 00000-0 23822-2 0 9993
2 62916 42.9996 8.2692 0003566 254.7714 105.2760 15.71138581 72057
Epoch: 5. Mai 2026 • Age: 22 hours

Aktueller Status

Höhe 353.3 km
Geschwindigkeit 7.70 km/s
Subsatellitenpunkt 10.10°N, 45.65°W
Startdatum 8. Feb. 2025
Alter 1.2 years
Typ internet

Technische Details

Klassifizierung Payload
Masse 960.00 kg
Trockenmasse 910.00 kg
Gesamtmasse 960.00 kg
Länge 0.30 m
Durchmesser 4.10 m
Spannweite 29.00 m
Form Box + pan
Hersteller SPXS
Bus-Typ Starlink V2MD
Phasenstatus In Orbit
Besitzer/Staat SPXS/US

Most Searched